contact:dominique.lefevre@mio.osupytheas.fr, maurice.libes@osupytheas.fr, didier.mallarino@osupytheas.fr
Project:EMSO http://www.emso-fr.org/EMSO-France
Depth: 2436.0 m
Title:EMSO Ligure Ouest : Data MII capteur MICROCAT
DateTime_Computer,Latitude,Longitude,Temperature,Conductivity,Pressure,DateTime_Instrument
DateTime_Computer,Latitude,Longitude,degC,S m-1,dbar,DateTime_Instrument
2021-11-04T00:02:25Z,42.805,6.029,13.2992,4.60019,2470.399,2021-11-04T02:03:50Z
2021-11-04T00:05:28Z,42.805,6.029,13.2991,4.60017,2470.353,2021-11-04T02:06:53Z
2021-11-04T00:08:31Z,42.805,6.029,13.2996,4.60016,2470.39,2021-11-04T02:09:56Z
2021-11-04T00:11:34Z,42.805,6.029,13.2995,4.60019,2470.39,2021-11-04T02:12:59Z
2021-11-04T00:14:37Z,42.805,6.029,13.2993,4.60021,2470.366,2021-11-04T02:16:02Z
2021-11-04T00:17:40Z,42.805,6.029,13.2994,4.60019,2470.39,2021-11-04T02:19:05Z
2021-11-04T00:20:43Z,42.805,6.029,13.2993,4.60019,2470.38,2021-11-04T02:22:08Z
2021-11-04T00:23:46Z,42.805,6.029,13.2993,4.60021,2470.38,2021-11-04T02:25:11Z
2021-11-04T00:26:50Z,42.805,6.029,13.2990,4.60026,2470.366,2021-11-04T02:28:15Z
2021-11-04T00:29:53Z,42.805,6.029,13.2997,4.60019,2470.413,2021-11-04T02:31:18Z
2021-11-04T00:32:56Z,42.805,6.029,13.2994,4.60019,2470.404,2021-11-04T02:34:21Z
2021-11-04T00:35:59Z,42.805,6.029,13.2995,4.60022,2470.39,2021-11-04T02:37:24Z
2021-11-04T00:39:02Z,42.805,6.029,13.2991,4.60021,2470.39,2021-11-04T02:40:27Z
2021-11-04T00:42:05Z,42.805,6.029,13.2994,4.60016,2470.366,2021-11-04T02:43:30Z
2021-11-04T00:45:08Z,42.805,6.029,13.2995,4.60016,2470.343,2021-11-04T02:46:33Z
2021-11-04T00:48:11Z,42.805,6.029,13.2992,4.60017,2470.39,2021-11-04T02:49:36Z
2021-11-04T00:51:14Z,42.805,6.029,13.2991,4.60019,2470.366,2021-11-04T02:52:40Z
2021-11-04T00:54:18Z,42.805,6.029,13.2994,4.60021,2470.404,2021-11-04T02:55:43Z
2021-11-04T00:57:21Z,42.805,6.029,13.2991,4.60022,2470.39,2021-11-04T02:58:46Z
2021-11-04T01:00:24Z,42.805,6.029,13.2993,4.60019,2470.366,2021-11-04T03:01:49Z
2021-11-04T01:03:27Z,42.805,6.029,13.2993,4.60022,2470.38,2021-11-04T03:04:52Z
2021-11-04T01:06:30Z,42.805,6.029,13.2991,4.60024,2470.404,2021-11-04T03:07:55Z
2021-11-04T01:09:33Z,42.805,6.029,13.2996,4.60019,2470.39,2021-11-04T03:10:58Z
2021-11-04T01:12:36Z,42.805,6.029,13.2993,4.60021,2470.404,2021-11-04T03:14:01Z
2021-11-04T01:15:39Z,42.805,6.029,13.2993,4.60016,2470.38,2021-11-04T03:17:05Z
2021-11-04T01:18:43Z,42.805,6.029,13.2993,4.60019,2470.404,2021-11-04T03:20:08Z
2021-11-04T01:21:46Z,42.805,6.029,13.2995,4.60019,2470.39,2021-11-04T03:23:11Z
2021-11-04T01:24:49Z,42.805,6.029,13.2993,4.60017,2470.38,2021-11-04T03:26:14Z
2021-11-04T01:27:52Z,42.805,6.029,13.2996,4.60016,2470.357,2021-11-04T03:29:17Z
2021-11-04T01:30:55Z,42.805,6.029,13.2991,4.60020,2470.343,2021-11-04T03:32:20Z
2021-11-04T01:33:58Z,42.805,6.029,13.2993,4.60019,2470.366,2021-11-04T03:35:23Z
2021-11-04T01:37:01Z,42.805,6.029,13.2996,4.60017,2470.353,2021-11-04T03:38:26Z
2021-11-04T01:40:04Z,42.805,6.029,13.2996,4.60021,2470.427,2021-11-04T03:41:30Z
2021-11-04T01:43:08Z,42.805,6.029,13.2993,4.60017,2470.366,2021-11-04T03:44:33Z
2021-11-04T01:46:11Z,42.805,6.029,13.2993,4.60019,2470.366,2021-11-04T03:47:36Z
2021-11-04T01:49:14Z,42.805,6.029,13.2992,4.60021,2470.39,2021-11-04T03:50:39Z
2021-11-04T01:52:17Z,42.805,6.029,13.2994,4.60019,2470.39,2021-11-04T03:53:42Z
2021-11-04T01:55:20Z,42.805,6.029,13.2992,4.60020,2470.427,2021-11-04T03:56:45Z
2021-11-04T01:58:23Z,42.805,6.029,13.2996,4.60018,2470.413,2021-11-04T03:59:48Z
2021-11-04T02:01:26Z,42.805,6.029,13.2996,4.60017,2470.39,2021-11-04T04:02:51Z
2021-11-04T02:04:29Z,42.805,6.029,13.2993,4.60016,2470.427,2021-11-04T04:05:54Z
2021-11-04T02:07:32Z,42.805,6.029,13.2990,4.60017,2470.413,2021-11-04T04:08:58Z
2021-11-04T02:10:35Z,42.805,6.029,13.2995,4.60019,2470.404,2021-11-04T04:12:01Z
2021-11-04T02:13:39Z,42.805,6.029,13.2993,4.60017,2470.39,2021-11-04T04:15:04Z
2021-11-04T02:16:42Z,42.805,6.029,13.2991,4.60018,2470.39,2021-11-04T04:18:07Z
2021-11-04T02:19:45Z,42.805,6.029,13.2992,4.60019,2470.427,2021-11-04T04:21:10Z
2021-11-04T02:22:48Z,42.805,6.029,13.2995,4.60019,2470.404,2021-11-04T04:24:13Z
2021-11-04T02:25:51Z,42.805,6.029,13.2993,4.60021,2470.45,2021-11-04T04:27:16Z
2021-11-04T02:28:54Z,42.805,6.029,13.2996,4.60022,2470.366,2021-11-04T04:30:19Z
2021-11-04T02:31:57Z,42.805,6.029,13.2994,4.60019,2470.427,2021-11-04T04:33:22Z
2021-11-04T02:35:00Z,42.805,6.029,13.2991,4.60016,2470.437,2021-11-04T04:36:26Z
2021-11-04T02:38:04Z,42.805,6.029,13.2993,4.60024,2470.39,2021-11-04T04:39:29Z
2021-11-04T02:41:07Z,42.805,6.029,13.2991,4.60019,2470.427,2021-11-04T04:42:32Z
2021-11-04T02:44:10Z,42.805,6.029,13.2993,4.60019,2470.427,2021-11-04T04:45:35Z
2021-11-04T02:47:13Z,42.805,6.029,13.2993,4.60019,2470.413,2021-11-04T04:48:38Z
2021-11-04T02:50:16Z,42.805,6.029,13.2991,4.60019,2470.437,2021-11-04T04:51:41Z
2021-11-04T02:53:19Z,42.805,6.029,13.2991,4.60021,2470.437,2021-11-04T04:54:44Z
2021-11-04T02:56:22Z,42.805,6.029,13.2996,4.60026,2470.413,2021-11-04T04:57:47Z
2021-11-04T02:59:25Z,42.805,6.029,13.2993,4.60021,2470.413,2021-11-04T05:00:50Z
2021-11-04T03:02:28Z,42.805,6.029,13.2991,4.60028,2470.413,2021-11-04T05:03:54Z
2021-11-04T03:05:32Z,42.805,6.029,13.2993,4.60023,2470.437,2021-11-04T05:06:57Z
2021-11-04T03:08:35Z,42.805,6.029,13.2998,4.60026,2470.413,2021-11-04T05:10:00Z
2021-11-04T03:11:38Z,42.805,6.029,13.2990,4.60021,2470.46,2021-11-04T05:13:03Z
2021-11-04T03:14:41Z,42.805,6.029,13.2993,4.60022,2470.46,2021-11-04T05:16:06Z
2021-11-04T03:17:44Z,42.805,6.029,13.2996,4.60022,2470.45,2021-11-04T05:19:09Z
2021-11-04T03:20:47Z,42.805,6.029,13.2990,4.60019,2470.437,2021-11-04T05:22:12Z
2021-11-04T03:23:50Z,42.805,6.029,13.2996,4.60016,2470.483,2021-11-04T05:25:15Z
2021-11-04T03:26:53Z,42.805,6.029,13.2993,4.60017,2470.474,2021-11-04T05:28:19Z
2021-11-04T03:29:57Z,42.805,6.029,13.2989,4.60019,2470.497,2021-11-04T05:31:22Z
2021-11-04T03:33:00Z,42.805,6.029,13.2996,4.60021,2470.474,2021-11-04T05:34:25Z
2021-11-04T03:36:03Z,42.805,6.029,13.2993,4.60021,2470.497,2021-11-04T05:37:28Z
2021-11-04T03:39:06Z,42.805,6.029,13.2995,4.60031,2470.474,2021-11-04T05:40:31Z
2021-11-04T03:42:09Z,42.805,6.029,13.2991,4.60019,2470.46,2021-11-04T05:43:34Z
2021-11-04T03:45:12Z,42.805,6.029,13.2995,4.60019,2470.437,2021-11-04T05:46:37Z
2021-11-04T03:48:15Z,42.805,6.029,13.2994,4.60019,2470.474,2021-11-04T05:49:40Z
2021-11-04T03:51:18Z,42.805,6.029,13.2995,4.60019,2470.52,2021-11-04T05:52:43Z
2021-11-04T03:54:21Z,42.805,6.029,13.2997,4.60019,2470.483,2021-11-04T05:55:47Z
2021-11-04T03:57:25Z,42.805,6.029,13.2995,4.60023,2470.507,2021-11-04T05:58:50Z
2021-11-04T04:00:28Z,42.805,6.029,13.2996,4.60026,2470.507,2021-11-04T06:01:53Z
2021-11-04T04:03:31Z,42.805,6.029,13.2995,4.60025,2470.507,2021-11-04T06:04:56Z
2021-11-04T04:06:34Z,42.805,6.029,13.2995,4.60022,2470.497,2021-11-04T06:07:59Z
2021-11-04T04:09:37Z,42.805,6.029,13.2996,4.60022,2470.507,2021-11-04T06:11:02Z
2021-11-04T04:12:40Z,42.805,6.029,13.2998,4.60024,2470.507,2021-11-04T06:14:05Z
2021-11-04T04:15:43Z,42.805,6.029,13.2991,4.60021,2470.483,2021-11-04T06:17:08Z
2021-11-04T04:18:46Z,42.805,6.029,13.2994,4.60019,2470.52,2021-11-04T06:20:12Z
2021-11-04T04:21:50Z,42.805,6.029,13.2997,4.60023,2470.53,2021-11-04T06:23:15Z
2021-11-04T04:24:53Z,42.805,6.029,13.2998,4.60027,2470.52,2021-11-04T06:26:18Z
2021-11-04T04:27:56Z,42.805,6.029,13.2995,4.60026,2470.52,2021-11-04T06:29:21Z
2021-11-04T04:30:59Z,42.805,6.029,13.2994,4.60031,2470.53,2021-11-04T06:32:24Z
2021-11-04T04:34:02Z,42.805,6.029,13.2991,4.60025,2470.567,2021-11-04T06:35:27Z
2021-11-04T04:37:05Z,42.805,6.029,13.2990,4.60023,2470.553,2021-11-04T06:38:30Z
2021-11-04T04:40:08Z,42.805,6.029,13.2995,4.60020,2470.567,2021-11-04T06:41:33Z
2021-11-04T04:43:11Z,42.805,6.029,13.2990,4.60020,2470.53,2021-11-04T06:44:36Z
2021-11-04T04:46:15Z,42.805,6.029,13.2988,4.60021,2470.553,2021-11-04T06:47:40Z
2021-11-04T04:49:18Z,42.805,6.029,13.2996,4.60019,2470.553,2021-11-04T06:50:43Z
2021-11-04T04:52:21Z,42.805,6.029,13.2994,4.60035,2470.544,2021-11-04T06:53:46Z
2021-11-04T04:55:24Z,42.805,6.029,13.3003,4.60044,2470.553,2021-11-04T06:56:49Z
2021-11-04T04:58:27Z,42.805,6.029,13.2997,4.60029,2470.553,2021-11-04T06:59:52Z
2021-11-04T05:01:30Z,42.805,6.029,13.2996,4.60032,2470.553,2021-11-04T07:02:55Z
2021-11-04T05:04:33Z,42.805,6.029,13.2996,4.60026,2470.53,2021-11-04T07:05:58Z
2021-11-04T05:07:36Z,42.805,6.029,13.2997,4.60022,2470.591,2021-11-04T07:09:01Z
2021-11-04T05:10:39Z,42.805,6.029,13.2997,4.60021,2470.52,2021-11-04T07:12:05Z
2021-11-04T05:13:43Z,42.805,6.029,13.2998,4.60023,2470.591,2021-11-04T07:15:08Z
2021-11-04T05:16:46Z,42.805,6.029,13.2998,4.60021,2470.553,2021-11-04T07:18:11Z
2021-11-04T05:19:49Z,42.805,6.029,13.2993,4.60016,2470.553,2021-11-04T07:21:14Z
2021-11-04T05:22:52Z,42.805,6.029,13.2992,4.60021,2470.591,2021-11-04T07:24:17Z
2021-11-04T05:25:55Z,42.805,6.029,13.2991,4.60025,2470.577,2021-11-04T07:27:20Z
2021-11-04T05:28:58Z,42.805,6.029,13.2990,4.60020,2470.553,2021-11-04T07:30:23Z
2021-11-04T05:32:01Z,42.805,6.029,13.2995,4.60018,2470.553,2021-11-04T07:33:26Z
2021-11-04T05:35:04Z,42.805,6.029,13.2993,4.60016,2470.577,2021-11-04T07:36:29Z
2021-11-04T05:38:08Z,42.805,6.029,13.2993,4.60017,2470.567,2021-11-04T07:39:33Z
2021-11-04T05:41:11Z,42.805,6.029,13.2992,4.60021,2470.577,2021-11-04T07:42:36Z
2021-11-04T05:44:14Z,42.805,6.029,13.2997,4.60018,2470.577,2021-11-04T07:45:39Z
2021-11-04T05:47:17Z,42.805,6.029,13.2993,4.60020,2470.6,2021-11-04T07:48:42Z
2021-11-04T05:50:20Z,42.805,6.029,13.2991,4.60019,2470.577,2021-11-04T07:51:45Z
2021-11-04T05:53:23Z,42.805,6.029,13.2992,4.60019,2470.591,2021-11-04T07:54:48Z
2021-11-04T05:56:26Z,42.805,6.029,13.2991,4.60019,2470.624,2021-11-04T07:57:51Z
2021-11-04T05:59:29Z,42.805,6.029,13.2991,4.60023,2470.577,2021-11-04T08:00:54Z
2021-11-04T06:02:33Z,42.805,6.029,13.2994,4.60018,2470.6,2021-11-04T08:03:58Z
2021-11-04T06:05:36Z,42.805,6.029,13.2996,4.60016,2470.591,2021-11-04T08:07:01Z
2021-11-04T06:08:39Z,42.805,6.029,13.2994,4.60016,2470.6,2021-11-04T08:10:04Z
2021-11-04T06:11:42Z,42.805,6.029,13.2994,4.60016,2470.6,2021-11-04T08:13:07Z
2021-11-04T06:14:45Z,42.805,6.029,13.2992,4.60015,2470.6,2021-11-04T08:16:10Z
2021-11-04T06:17:48Z,42.805,6.029,13.2996,4.60019,2470.614,2021-11-04T08:19:13Z
2021-11-04T06:20:51Z,42.805,6.029,13.2995,4.60017,2470.614,2021-11-04T08:22:16Z
2021-11-04T06:23:54Z,42.805,6.029,13.2992,4.60017,2470.614,2021-11-04T08:25:19Z
2021-11-04T06:26:57Z,42.805,6.029,13.2996,4.60019,2470.6,2021-11-04T08:28:23Z
2021-11-04T06:30:01Z,42.805,6.029,13.2991,4.60019,2470.577,2021-11-04T08:31:26Z
2021-11-04T06:33:04Z,42.805,6.029,13.2993,4.60019,2470.6,2021-11-04T08:34:29Z
2021-11-04T06:36:07Z,42.805,6.029,13.2993,4.60017,2470.577,2021-11-04T08:37:32Z
2021-11-04T06:39:10Z,42.805,6.029,13.2996,4.60019,2470.6,2021-11-04T08:40:35Z
2021-11-04T06:42:13Z,42.805,6.029,13.2993,4.60018,2470.6,2021-11-04T08:43:38Z
2021-11-04T06:45:16Z,42.805,6.029,13.2992,4.60018,2470.577,2021-11-04T08:46:41Z
2021-11-04T06:48:19Z,42.805,6.029,13.2995,4.60016,2470.577,2021-11-04T08:49:44Z
2021-11-04T06:51:22Z,42.805,6.029,13.2992,4.60018,2470.577,2021-11-04T08:52:47Z
2021-11-04T06:54:26Z,42.805,6.029,13.2990,4.60017,2470.577,2021-11-04T08:55:51Z
2021-11-04T06:57:29Z,42.805,6.029,13.2990,4.60019,2470.53,2021-11-04T08:58:54Z
2021-11-04T07:00:32Z,42.805,6.029,13.2996,4.60016,2470.614,2021-11-04T09:01:57Z
2021-11-04T07:03:35Z,42.805,6.029,13.2992,4.60019,2470.591,2021-11-04T09:05:00Z
2021-11-04T07:06:38Z,42.805,6.029,13.2993,4.60016,2470.6,2021-11-04T09:08:03Z
2021-11-04T07:09:41Z,42.805,6.029,13.2998,4.60016,2470.624,2021-11-04T09:11:06Z
2021-11-04T07:12:44Z,42.805,6.029,13.2993,4.60017,2470.6,2021-11-04T09:14:09Z
2021-11-04T07:15:47Z,42.805,6.029,13.2992,4.60017,2470.6,2021-11-04T09:17:12Z
2021-11-04T07:18:50Z,42.805,6.029,13.2993,4.60019,2470.6,2021-11-04T09:20:15Z
2021-11-04T07:21:54Z,42.805,6.029,13.2991,4.60016,2470.577,2021-11-04T09:23:19Z
2021-11-04T07:24:57Z,42.805,6.029,13.2993,4.60019,2470.6,2021-11-04T09:26:22Z
2021-11-04T07:28:00Z,42.805,6.029,13.2991,4.60016,2470.614,2021-11-04T09:29:25Z
2021-11-04T07:31:03Z,42.805,6.029,13.2996,4.60017,2470.624,2021-11-04T09:32:28Z
2021-11-04T07:34:06Z,42.805,6.029,13.2996,4.60016,2470.624,2021-11-04T09:35:31Z
2021-11-04T07:37:09Z,42.805,6.029,13.2993,4.60018,2470.577,2021-11-04T09:38:34Z
2021-11-04T07:40:12Z,42.805,6.029,13.2991,4.60015,2470.6,2021-11-04T09:41:37Z
2021-11-04T07:43:15Z,42.805,6.029,13.2995,4.60016,2470.637,2021-11-04T09:44:40Z
2021-11-04T07:46:18Z,42.805,6.029,13.2991,4.60016,2470.586,2021-11-04T09:47:44Z
2021-11-04T07:49:22Z,42.805,6.029,13.2996,4.60016,2470.591,2021-11-04T09:50:47Z
2021-11-04T07:52:25Z,42.805,6.029,13.2993,4.60014,2470.591,2021-11-04T09:53:50Z
2021-11-04T07:55:28Z,42.805,6.029,13.2993,4.60016,2470.567,2021-11-04T09:56:53Z
2021-11-04T07:58:31Z,42.805,6.029,13.2993,4.60019,2470.591,2021-11-04T09:59:56Z
2021-11-04T08:01:34Z,42.805,6.029,13.2993,4.60019,2470.591,2021-11-04T10:02:59Z
2021-11-04T08:04:37Z,42.805,6.029,13.2994,4.60018,2470.577,2021-11-04T10:06:02Z
2021-11-04T08:07:40Z,42.805,6.029,13.2992,4.60017,2470.553,2021-11-04T10:09:05Z
2021-11-04T08:10:43Z,42.805,6.029,13.2995,4.60014,2470.577,2021-11-04T10:12:08Z
2021-11-04T08:13:47Z,42.805,6.029,13.2991,4.60015,2470.577,2021-11-04T10:15:12Z
2021-11-04T08:16:50Z,42.805,6.029,13.2996,4.60016,2470.577,2021-11-04T10:18:15Z
2021-11-04T08:19:53Z,42.805,6.029,13.2996,4.60017,2470.591,2021-11-04T10:21:18Z
2021-11-04T08:22:56Z,42.805,6.029,13.2990,4.60016,2470.637,2021-11-04T10:24:21Z
2021-11-04T08:25:59Z,42.805,6.029,13.2993,4.60016,2470.577,2021-11-04T10:27:24Z
2021-11-04T08:29:02Z,42.805,6.029,13.2993,4.60016,2470.577,2021-11-04T10:30:27Z
2021-11-04T08:32:05Z,42.805,6.029,13.2993,4.60016,2470.553,2021-11-04T10:33:30Z
2021-11-04T08:35:08Z,42.805,6.029,13.2993,4.60015,2470.553,2021-11-04T10:36:33Z
2021-11-04T08:38:11Z,42.805,6.029,13.2992,4.60014,2470.553,2021-11-04T10:39:37Z
2021-11-04T08:41:15Z,42.805,6.029,13.2993,4.60015,2470.553,2021-11-04T10:42:40Z
2021-11-04T08:44:18Z,42.805,6.029,13.2993,4.60015,2470.567,2021-11-04T10:45:43Z
2021-11-04T08:47:21Z,42.805,6.029,13.2996,4.60014,2470.553,2021-11-04T10:48:46Z
2021-11-04T08:50:24Z,42.805,6.029,13.2993,4.60014,2470.544,2021-11-04T10:51:49Z
2021-11-04T08:53:27Z,42.805,6.029,13.2990,4.60014,2470.577,2021-11-04T10:54:52Z
2021-11-04T08:56:30Z,42.805,6.029,13.2990,4.60016,2470.591,2021-11-04T10:57:55Z
2021-11-04T08:59:33Z,42.805,6.029,13.2993,4.60015,2470.53,2021-11-04T11:00:58Z
2021-11-04T09:02:36Z,42.805,6.029,13.2991,4.60015,2470.507,2021-11-04T11:04:02Z
2021-11-04T09:05:40Z,42.805,6.029,13.2993,4.60014,2470.53,2021-11-04T11:07:05Z
2021-11-04T09:08:43Z,42.805,6.029,13.2993,4.60014,2470.53,2021-11-04T11:10:08Z
2021-11-04T09:11:46Z,42.805,6.029,13.2993,4.60015,2470.553,2021-11-04T11:13:11Z
2021-11-04T09:14:49Z,42.805,6.029,13.2993,4.60014,2470.544,2021-11-04T11:16:14Z
2021-11-04T09:17:52Z,42.805,6.029,13.2993,4.60014,2470.567,2021-11-04T11:19:17Z
2021-11-04T09:20:55Z,42.805,6.029,13.2991,4.60015,2470.544,2021-11-04T11:22:20Z
2021-11-04T09:23:58Z,42.805,6.029,13.2993,4.60013,2470.567,2021-11-04T11:25:23Z
2021-11-04T09:27:01Z,42.805,6.029,13.2995,4.60014,2470.544,2021-11-04T11:28:27Z
2021-11-04T09:30:05Z,42.805,6.029,13.2994,4.60014,2470.567,2021-11-04T11:31:30Z
2021-11-04T09:33:08Z,42.805,6.029,13.2988,4.60014,2470.507,2021-11-04T11:34:33Z
2021-11-04T09:36:11Z,42.805,6.029,13.2992,4.60013,2470.52,2021-11-04T11:37:36Z
2021-11-04T09:39:14Z,42.805,6.029,13.2995,4.60014,2470.544,2021-11-04T11:40:39Z
2021-11-04T09:42:17Z,42.805,6.029,13.2992,4.60016,2470.52,2021-11-04T11:43:42Z
2021-11-04T09:45:20Z,42.805,6.029,13.2992,4.60014,2470.507,2021-11-04T11:46:45Z
2021-11-04T09:48:23Z,42.805,6.029,13.2991,4.60013,2470.497,2021-11-04T11:49:48Z
2021-11-04T09:51:26Z,42.805,6.029,13.2991,4.60014,2470.52,2021-11-04T11:52:52Z
2021-11-04T09:54:30Z,42.805,6.029,13.2996,4.60015,2470.544,2021-11-04T11:55:55Z
2021-11-04T09:57:33Z,42.805,6.029,13.2994,4.60017,2470.507,2021-11-04T11:58:58Z
2021-11-04T10:00:36Z,42.805,6.029,13.2991,4.60014,2470.46,2021-11-04T12:02:01Z
2021-11-04T10:03:39Z,42.805,6.029,13.2994,4.60016,2470.497,2021-11-04T12:05:04Z
2021-11-04T10:06:42Z,42.805,6.029,13.2994,4.60013,2470.483,2021-11-04T12:08:07Z
2021-11-04T10:09:45Z,42.805,6.029,13.2993,4.60014,2470.46,2021-11-04T12:11:10Z
2021-11-04T10:12:48Z,42.805,6.029,13.2994,4.60014,2470.497,2021-11-04T12:14:13Z
2021-11-04T10:15:51Z,42.805,6.029,13.2993,4.60014,2470.497,2021-11-04T12:17:17Z
2021-11-04T10:18:55Z,42.805,6.029,13.2993,4.60011,2470.507,2021-11-04T12:20:20Z
2021-11-04T10:21:58Z,42.805,6.029,13.2994,4.60016,2470.474,2021-11-04T12:23:23Z
2021-11-04T10:25:01Z,42.805,6.029,13.2991,4.60014,2470.497,2021-11-04T12:26:26Z
2021-11-04T10:28:04Z,42.805,6.029,13.2994,4.60014,2470.483,2021-11-04T12:29:29Z
2021-11-04T10:31:07Z,42.805,6.029,13.2996,4.60014,2470.46,2021-11-04T12:32:32Z
2021-11-04T10:34:10Z,42.805,6.029,13.2992,4.60014,2470.437,2021-11-04T12:35:35Z
2021-11-04T10:37:13Z,42.805,6.029,13.2992,4.60015,2470.46,2021-11-04T12:38:38Z
2021-11-04T10:40:16Z,42.805,6.029,13.2993,4.60014,2470.437,2021-11-04T12:41:42Z
2021-11-04T10:43:20Z,42.805,6.029,13.2993,4.60015,2470.474,2021-11-04T12:44:45Z
2021-11-04T10:46:23Z,42.805,6.029,13.2995,4.60014,2470.437,2021-11-04T12:47:48Z
2021-11-04T10:49:26Z,42.805,6.029,13.2994,4.60014,2470.437,2021-11-04T12:50:51Z
2021-11-04T10:52:29Z,42.805,6.029,13.2991,4.60016,2470.474,2021-11-04T12:53:54Z
2021-11-04T10:55:32Z,42.805,6.029,13.2991,4.60015,2470.446,2021-11-04T12:56:57Z
2021-11-04T10:58:35Z,42.805,6.029,13.2990,4.60013,2470.46,2021-11-04T13:00:00Z
2021-11-04T11:01:38Z,42.805,6.029,13.2994,4.60014,2470.437,2021-11-04T13:03:03Z
2021-11-04T11:04:41Z,42.805,6.029,13.2993,4.60013,2470.427,2021-11-04T13:06:07Z
2021-11-04T11:07:45Z,42.805,6.029,13.2993,4.60014,2470.427,2021-11-04T13:09:10Z
2021-11-04T11:10:48Z,42.805,6.029,13.2995,4.60014,2470.427,2021-11-04T13:12:13Z
2021-11-04T11:13:51Z,42.805,6.029,13.2993,4.60014,2470.437,2021-11-04T13:15:16Z
2021-11-04T11:16:54Z,42.805,6.029,13.2992,4.60014,2470.437,2021-11-04T13:18:19Z
2021-11-04T11:19:57Z,42.805,6.029,13.2993,4.60014,2470.45,2021-11-04T13:21:22Z
2021-11-04T11:23:00Z,42.805,6.029,13.2993,4.60013,2470.483,2021-11-04T13:24:25Z
2021-11-04T11:26:03Z,42.805,6.029,13.2993,4.60014,2470.45,2021-11-04T13:27:28Z
2021-11-04T11:29:06Z,42.805,6.029,13.2996,4.60013,2470.474,2021-11-04T13:30:32Z
2021-11-04T11:32:09Z,42.805,6.029,13.2996,4.60013,2470.413,2021-11-04T13:33:35Z
2021-11-04T11:35:13Z,42.805,6.029,13.2994,4.60014,2470.45,2021-11-04T13:36:38Z
2021-11-04T11:38:16Z,42.805,6.029,13.2993,4.60012,2470.427,2021-11-04T13:39:41Z
2021-11-04T11:41:19Z,42.805,6.029,13.2990,4.60014,2470.437,2021-11-04T13:42:44Z
2021-11-04T11:44:22Z,42.805,6.029,13.2993,4.60013,2470.427,2021-11-04T13:45:47Z
2021-11-04T11:47:25Z,42.805,6.029,13.2993,4.60012,2470.413,2021-11-04T13:48:50Z
2021-11-04T11:50:28Z,42.805,6.029,13.2994,4.60013,2470.404,2021-11-04T13:51:53Z
2021-11-04T11:53:31Z,42.805,6.029,13.2994,4.60014,2470.45,2021-11-04T13:54:56Z
2021-11-04T11:56:34Z,42.805,6.029,13.2993,4.60014,2470.45,2021-11-04T13:58:00Z
2021-11-04T11:59:38Z,42.805,6.029,13.2990,4.60011,2470.427,2021-11-04T14:01:03Z
2021-11-04T12:02:41Z,42.805,6.029,13.2990,4.60011,2470.39,2021-11-04T14:04:06Z
2021-11-04T12:05:44Z,42.805,6.029,13.2988,4.60014,2470.38,2021-11-04T14:07:09Z
2021-11-04T12:08:47Z,42.805,6.029,13.2993,4.60012,2470.413,2021-11-04T14:10:12Z
2021-11-04T12:11:50Z,42.805,6.029,13.2993,4.60012,2470.427,2021-11-04T14:13:15Z
2021-11-04T12:14:53Z,42.805,6.029,13.2992,4.60012,2470.413,2021-11-04T14:16:18Z
2021-11-04T12:17:56Z,42.805,6.029,13.2991,4.60012,2470.413,2021-11-04T14:19:21Z
2021-11-04T12:20:59Z,42.805,6.029,13.2993,4.60012,2470.413,2021-11-04T14:22:25Z
2021-11-04T12:24:03Z,42.805,6.029,13.2993,4.60012,2470.404,2021-11-04T14:25:28Z
2021-11-04T12:27:06Z,42.805,6.029,13.2992,4.60011,2470.413,2021-11-04T14:28:31Z
2021-11-04T12:30:09Z,42.805,6.029,13.2989,4.60012,2470.413,2021-11-04T14:31:34Z
2021-11-04T12:33:12Z,42.805,6.029,13.2996,4.60013,2470.404,2021-11-04T14:34:37Z
2021-11-04T12:36:15Z,42.805,6.029,13.2994,4.60013,2470.39,2021-11-04T14:37:40Z
2021-11-04T12:39:18Z,42.805,6.029,13.2993,4.60014,2470.39,2021-11-04T14:40:43Z
2021-11-04T12:42:21Z,42.805,6.029,13.2993,4.60011,2470.427,2021-11-04T14:43:46Z
2021-11-04T12:45:24Z,42.805,6.029,13.2993,4.60011,2470.427,2021-11-04T14:46:50Z
2021-11-04T12:48:28Z,42.805,6.029,13.2991,4.60011,2470.413,2021-11-04T14:49:53Z
2021-11-04T12:51:31Z,42.805,6.029,13.2993,4.60014,2470.38,2021-11-04T14:52:56Z
2021-11-04T12:54:34Z,42.805,6.029,13.2990,4.60014,2470.366,2021-11-04T14:55:59Z
2021-11-04T12:57:37Z,42.805,6.029,13.2996,4.60011,2470.38,2021-11-04T14:59:02Z
2021-11-04T13:00:40Z,42.805,6.029,13.2991,4.60013,2470.427,2021-11-04T15:02:05Z
2021-11-04T13:03:43Z,42.805,6.029,13.2991,4.60014,2470.427,2021-11-04T15:05:08Z
2021-11-04T13:06:46Z,42.805,6.029,13.2993,4.60011,2470.38,2021-11-04T15:08:11Z
2021-11-04T13:09:49Z,42.805,6.029,13.2995,4.60011,2470.404,2021-11-04T15:11:15Z
2021-11-04T13:12:53Z,42.805,6.029,13.2990,4.60011,2470.366,2021-11-04T15:14:18Z
2021-11-04T13:15:56Z,42.805,6.029,13.2993,4.60011,2470.38,2021-11-04T15:17:21Z
2021-11-04T13:18:59Z,42.805,6.029,13.2993,4.60013,2470.376,2021-11-04T15:20:24Z
2021-11-04T13:22:02Z,42.805,6.029,13.2991,4.60013,2470.404,2021-11-04T15:23:27Z
2021-11-04T13:25:05Z,42.805,6.029,13.2990,4.60014,2470.39,2021-11-04T15:26:30Z
2021-11-04T13:28:08Z,42.805,6.029,13.2990,4.60014,2470.427,2021-11-04T15:29:33Z
2021-11-04T13:31:11Z,42.805,6.029,13.2992,4.60013,2470.404,2021-11-04T15:32:36Z
2021-11-04T13:34:14Z,42.805,6.029,13.2991,4.60014,2470.404,2021-11-04T15:35:39Z
2021-11-04T13:37:18Z,42.805,6.029,13.2992,4.60012,2470.39,2021-11-04T15:38:43Z
2021-11-04T13:40:21Z,42.805,6.029,13.2991,4.60014,2470.38,2021-11-04T15:41:46Z
2021-11-04T13:43:24Z,42.805,6.029,13.2994,4.60013,2470.39,2021-11-04T15:44:49Z
2021-11-04T13:46:27Z,42.805,6.029,13.2990,4.60011,2470.427,2021-11-04T15:47:52Z
2021-11-04T13:49:30Z,42.805,6.029,13.2993,4.60011,2470.39,2021-11-04T15:50:55Z
2021-11-04T13:52:33Z,42.805,6.029,13.2999,4.60014,2470.39,2021-11-04T15:53:58Z
2021-11-04T13:55:36Z,42.805,6.029,13.2993,4.60013,2470.427,2021-11-04T15:57:01Z
2021-11-04T13:58:39Z,42.805,6.029,13.2993,4.60014,2470.39,2021-11-04T16:00:04Z
2021-11-04T14:01:42Z,42.805,6.029,13.2991,4.60014,2470.437,2021-11-04T16:03:08Z
2021-11-04T14:04:46Z,42.805,6.029,13.2991,4.60014,2470.39,2021-11-04T16:06:11Z
2021-11-04T14:07:49Z,42.805,6.029,13.2992,4.60014,2470.413,2021-11-04T16:09:14Z
2021-11-04T14:10:52Z,42.805,6.029,13.2995,4.60014,2470.427,2021-11-04T16:12:17Z
2021-11-04T14:13:55Z,42.805,6.029,13.2993,4.60013,2470.404,2021-11-04T16:15:20Z
2021-11-04T14:16:58Z,42.805,6.029,13.2992,4.60013,2470.399,2021-11-04T16:18:23Z
2021-11-04T14:20:01Z,42.805,6.029,13.2995,4.60014,2470.404,2021-11-04T16:21:26Z
2021-11-04T14:23:04Z,42.805,6.029,13.2996,4.60014,2470.427,2021-11-04T16:24:29Z
2021-11-04T14:26:07Z,42.805,6.029,13.2996,4.60013,2470.413,2021-11-04T16:27:33Z
2021-11-04T14:29:11Z,42.805,6.029,13.2994,4.60014,2470.45,2021-11-04T16:30:36Z
2021-11-04T14:32:14Z,42.805,6.029,13.2993,4.60012,2470.39,2021-11-04T16:33:39Z
2021-11-04T14:35:17Z,42.805,6.029,13.2993,4.60014,2470.404,2021-11-04T16:36:42Z
2021-11-04T14:38:20Z,42.805,6.029,13.2991,4.60013,2470.427,2021-11-04T16:39:45Z
2021-11-04T14:41:23Z,42.805,6.029,13.2991,4.60013,2470.427,2021-11-04T16:42:48Z
2021-11-04T14:44:26Z,42.805,6.029,13.2996,4.60012,2470.474,2021-11-04T16:45:51Z
2021-11-04T14:47:29Z,42.805,6.029,13.2991,4.60014,2470.404,2021-11-04T16:48:54Z
2021-11-04T14:50:32Z,42.805,6.029,13.2991,4.60013,2470.437,2021-11-04T16:51:58Z
2021-11-04T14:53:36Z,42.805,6.029,13.2989,4.60014,2470.413,2021-11-04T16:55:01Z
2021-11-04T14:56:39Z,42.805,6.029,13.2993,4.60013,2470.437,2021-11-04T16:58:04Z
2021-11-04T14:59:42Z,42.805,6.029,13.2993,4.60012,2470.46,2021-11-04T17:01:07Z
2021-11-04T15:02:45Z,42.805,6.029,13.2993,4.60015,2470.46,2021-11-04T17:04:10Z